Location: Beuvrequen
(50.8014°N, 1.6652°E)
Time: 22:10:39
(UTC+00:00)

SL-19 R/B - Pass Details

Date: 16 October 2021
Orbit: 874 x 1209 km, 100.6° (Epoch: 04 December)

Event Time Altitude Azimuth Distance (km) Brightness Sun altitude
Rises 18:03:47 0° 17° (NNE) 3,680 7.3 -11.0°
Reaches altitude 10° 18:06:18 10° 17° (NNE) 2,686 6.6 -11.4°
Maximum altitude 18:12:15 84° 290° (WNW) 919 4.4 -12.4°
Drops below altitude 10° 18:17:51 10° 203° (SSW) 2,534 7.0 -13.3°
Sets 18:20:10 0° 203° (SSW) 3,458 7.7 -13.6°
